Cloud_Cover
73 91 96 100 93 100 100 74 62 76 13 9 18 20 51 5 5 38 63 49 100 100 100 100 42 5 22 83 100 100 100 100 100 100 100 100 100 100 100 100 99 100 100
5 13 81 100 100 100 100 100 100 56 5 5 47 5 5 5 5 18 88 99 29 59 67 65 100 78 77 5 13 96 100 100 100 100 100 100 100 100 100 100 100 100 88
5 5 40 100 90 89 42 79 69 5 5 74 100 12 5 5 5 5 5 58 92 88 5 22 6 89 5 5 50 21 9 78 100 100 100 100 100 100 100 100 100 100 100
5 5 5 62 51 77 92 94 98 100 81 89 90 5 5 5 4 5 4 5 28 97 12 7 26 46 6 5 84 100 100 84 100 100 100 100 100 100 100 100 100 100 100
58 18 24 5 4 6 86 100 100 100 49 16 25 5 5 68 35 0 0 0 0 0 22 25 98 100 92 60 71 100 99 71 97 100 100 100 100 100 100 100 100 100 100
0 1 9 5 5 5 12 60 100 100 100 100 100 82 94 40 66 4 5 0 5 5 0 1 3 3 13 60 67 11 100 100 90 100 100 100 100 100 100 100 100 100 100
4 0 0 0 0 0 15 5 5 5 15 4 12 52 90 98 42 84 51 19 31 95 68 45 14 14 10 6 49 23 7 59 83 73 100 100 100 100 100 100 100 100 100
5 2 0 0 0 0 1 0 1 0 0 0 1 5 29 88 94 100 100 34 68 69 100 100 30 2 0 27 41 33 84 100 61 94 79 99 100 100 100 100 100 100 100
1 0 0 0 1 0 0 4 53 9 4 32 86 93 100 100 52 96 100 100 100 36 86 100 100 44 10 100 100 100 100 100 100 100 100 100 100 100 100 100 100 100 100
1 15 93 100 100 61 13 34 33 44 93 95 72 22 20 5 14 100 100 100 100 100 100 82 82 99 100 100 100 100 100 97 100 98 99 100 100 100 100 100 100 100 100
100 100 100 100 100 100 100 100 74 34 91 54 4 2 0 3 8 99 100 86 100 100 100 98 92 100 100 95 100 100 100 38 99 100 30 64 100 100 100 100 100 100 100
97 100 100 100 100 100 100 70 5 2 2 0 0 0 0 0 18 75 100 100 38 98 100 99 92 100 100 100 100 100 99 100 85 98 48 100 100 100 100 100 100 100 100
100 100 100 100 100 100 95 91 24 6 7 0 0 0 0 5 14 3 36 46 94 99 100 100 100 100 100 100 100 100 100 100 100 100 100 89 100 100 100 100 100 100 100
100 100 100 100 100 100 100 9 4 2 0 0 0 0 23 27 23 94 100 100 100 100 100 100 100 100 100 100 100 100 100 100 100 100 100 100 93 97 100 100 100 100 100
100 100 100 100 100 100 100 100 100 92 17 0 0 11 100 56 29 100 100 100 100 100 100 100 99 100 100 100 100 100 100 100 100 100 100 100 100 100 100 100 100 100 100
100 100 100 100 100 100 100 100 100 97 100 100 98 95 92 100 100 100 100 100 100 100 100 100 100 99 100 100 98 100 100 100 100 100 100 100 100 100 100 100 100 100 100
100 100 100 100 100 100 100 100 100 74 100 100 100 100 100 98 100 100 100 100 100 100 100 100 100 100 100 100 100 100 100 100 100 100 100 100 100 100 100 100 100 100 100
100 100 100 100 100 100 100 100 100 100 0 1 74 100 100 100 100 100 100 88 64 100 100 100 100 100 100 100 100 100 100 100 100 100 100 100 100 100 100 100 100 100 100
100 100 100 100 100 100 100 100 61 94 3 0 0 22 51 100 100 100 98 16 56 82 96 100 100 100 100 100 100 100 100 100 100 100 100 100 100 100 100 100 100 100 100
100 100 100 100 100 100 100 97 22 54 6 1 2 0 0 23 0 0 1 6 10 20 90 56 64 90 100 100 100 100 100 100 100 100 100 100 98 100 100 100 100 100 100
100 100 100 100 100 100 100 100 10 6 8 10 5 0 3 0 76 9 5 5 1 3 16 31 33 34 46 86 96 100 100 100 100 100 100 100 100 100 100 100 100 100 100
100 100 100 100 100 100 100 38 33 11 54 2 5 1 76 83 28 99 19 4 5 18 27 18 27 25 25 24 24 46 82 73 91 98 99 99 96 100 100 100 100 100 100
100 100 100 100 100 100 99 98 22 19 27 9 0 0 3 0 4 96 71 70 41 34 8 19 22 19 10 28 20 7 5 24 65 39 58 44 24 24 31 43 53 66 66
100 100 100 100 100 100 64 53 79 100 4 2 5 0 0 0 0 47 52 2 11 94 94 30 12 8 3 86 93 10 45 8 44 56 74 61 21 28 11 5 5 64 99
100 100 100 100 99 26 6 40 41 14 5 4 4 0 0 0 0 0 9 56 13 5 35 31 10 6 5 1 3 14 10 100 28 20 5 5 14 5 3 27 85 84 100
100 100 100 100 38 87 18 14 5 26 5 4 0 4 5 5 5 5 2 6 96 99 56 22 69 78 61 23 1 35 100 100 83 100 13 2 2 1 2 1 0 12 37